Location: Zagreb
(45.8000°N, 16.0000°E)
Time: 09:06:51
(UTC+02:00)

deb Explorer IX - Visible Passes

Search period start: 03 October 2023 00:00
Search period end: 13 October 2023 00:00
Orbit: 528 x 964 km, 38.8° (Epoch: 02 October)

Date Brightness Start Highest point End Pass type
(mag) Time Alt. Az. Time Alt. Az. Time Alt. Az.
03 Oct ? 03:31:28 22° SE 03:31:28 22° SE 03:33:47 10° ESE visible
03 Oct ? 05:11:11 26° SW 05:12:32 28° SSW 05:17:59 10° SSE visible
04 Oct ? 04:27:13 29° S 04:27:13 29° S 04:31:25 10° SE visible
04 Oct ? 06:07:06 10° WSW 06:10:12 14° SW 06:13:20 10° S visible
05 Oct ? 03:43:15 16° SE 03:43:15 16° SE 03:44:39 10° SE visible
05 Oct ? 05:22:59 17° SW 05:23:26 17° SSW 05:27:30 10° S visible
06 Oct ? 04:39:03 17° S 04:39:03 17° S 04:41:12 10° SSE visible
12 Oct ? 19:36:36 10° SSE 19:37:34 11° SSE 19:37:34 11° SSE visible
